Location: G�rlitz
(51.1670°N, 15.0000°E)
Time: 19:36:38
(UTC+01:00)

Envisat - Pass Details

Date: 21 February 2026
Orbit: 761 x 763 km, 98.4° (Epoch: 11 March)

Event Time Altitude Azimuth Distance (km) Brightness Sun altitude
Rises 04:22:12 0° 5° (N) 3,238 6.5 -25.5°
Reaches altitude 10° 04:25:00 10° 350° (N) 2,307 5.5 -25.1°
Enters shadow 04:26:33 16° 335° (NNW) 1,909 4.9 -24.9°
